User: anonymous   Login
Location: Wingville
(42.9917°N, 90.4915°W)
Time: 11:52:48
(UTC+00:00)
Language:

XW-2F - Orbit

View from above orbital plane
View from above orbital plane
View from above satellite
View from above satellite

Ground track
Ground track

The orbit data is extracted from the following two-line orbital elements,

1 40910U 15049M   22176.08067819  .00008985  00000-0  38268-3 0  9990
2 40910  97.4722 183.0967 0011413 316.1223 115.6784 15.23146427374347
Epoch (UTC): 25 June 2022 01:56:10
Eccentricity: 0.0011413
inclination: 97.4722°
perigee height: 488 km
apogee height: 504 km
right ascension of ascending node: 183.0967°
argument of perigee: 316.1223°
revolutions per day: 15.23146427
mean anomaly at epoch: 115.6784°
orbit number at epoch: 37434

The dashed part of the orbit path shows where the satellite is in the earth's shadow,  

DLR